Weather History for KLND - September, 2012

Change the Weather History Date:

Monday, September 10, 2012

  Actual Average Record
Temperature  
Mean Temperature 73 °F 61 °F  
Max Temperature 85 °F 76 °F 87 °F (1959)
Min Temperature 60 °F 47 °F 31 °F (1928)
Degree Days  
Heating Degree Days 0 5  
Month to date heating degree days 7 36  
Since 1 July heating degree days 9 76  
Cooling Degree Days 8 1  
Month to date cooling degree days 32 19  
Year to date cooling degree days 775 464  
Growing Degree Days 21 (Base 50)    
Moisture  
Dew Point 43 °F    
Average Humidity 46    
Maximum Humidity 69    
Minimum Humidity 23    
Precipitation  
Precipitation 0.14 in 0.03 in 1.07 in (1950)
Month to date precipitation 0.14 0.25  
Year to date precipitation 4.82 9.13  
Snow  
Snow 0.00 in 0.00 in - ()
Month to date snowfall 0.0 0.3  
Since 1 July snowfall 0.0 0.3  
Since 1 September snowfall 0.0 0.3  
Snow Depth 0.00 in    
Sea Level Pressure  
Sea Level Pressure 29.83 in    
Wind  
Wind Speed 7 mph (NW)    
Max Wind Speed 20 mph    
Max Gust Speed 51 mph    
Visibility 9 miles    
Events Rain , Thunderstorm    
T = Trace of Precipitation, MM = Missing Value Source: NWS Daily Summary

Daily Weather History Graph

Daily Weather History Graph

Search for Another Location

Airport or City:

Trip Planner

Search our weather history database for the weather conditions in past years. The results will help you decide how hot, cold, wet, or windy it might be!

Date:

Astronomy

Sep. 10, 2012 Rise Set
Actual Time 6:49 AM MDT 7:32 PM MDT
Civil Twilight 6:21 AM MDT 8:01 PM MDT
Nautical Twilight 5:47 AM MDT 8:35 PM MDT
Astronomical Twilight 5:12 AM MDT 9:10 PM MDT
Moon 1:07 AM MDT (9/10) 4:10 PM MDT (9/10)
Length of Visible Light 13h 39m
Length of Day
12h 42m
Waning Crescent, 29% of the Moon is Illuminated
Sep 10
Waning Crescent
Sep 15
New
Sep 22
First Quarter
Sep 29
Full
Oct 8
Last Quarter

Hourly Weather History & Observations

Time (MDT) Temp. Dew Point Humidity Pressure Visibility Wind Dir Wind Speed Gust Speed Precip Events Conditions
12:53 AM 72.0 °F 33.1 °F 24% 29.78 in 10.0 mi SW 10.4 mph - N/A   Clear
1:53 AM 73.0 °F 33.1 °F 23% 29.77 in 10.0 mi SW 10.4 mph - N/A   Clear
2:53 AM 68.0 °F 34.0 °F 28% 29.76 in 10.0 mi NNW 3.5 mph - N/A   Clear
3:53 AM 66.0 °F 35.1 °F 32% 29.76 in 10.0 mi Calm Calm - N/A   Clear
4:53 AM 64.0 °F 36.0 °F 35% 29.75 in 10.0 mi East 4.6 mph - N/A   Clear
5:53 AM 66.9 °F 36.0 °F 32% 29.73 in 10.0 mi East 4.6 mph - N/A   Clear
6:53 AM 63.0 °F 37.9 °F 40% 29.75 in 10.0 mi Calm Calm - N/A   Clear
7:53 AM 66.0 °F 36.0 °F 33% 29.78 in 10.0 mi NW 3.5 mph - N/A   Clear
8:53 AM 64.0 °F 34.0 °F 33% 29.80 in 10.0 mi North 8.1 mph - N/A   Clear
9:53 AM 64.9 °F 36.0 °F 34% 29.80 in 10.0 mi Calm Calm - N/A   Clear
10:53 AM 66.9 °F 39.9 °F 37% 29.80 in 10.0 mi North 6.9 mph - N/A   Clear
11:53 AM 75.0 °F 41.0 °F 29% 29.78 in 10.0 mi NNW 10.4 mph - N/A   Clear
12:53 PM 80.1 °F 37.9 °F 22% 29.75 in 10.0 mi Calm Calm - N/A Thunderstorm Thunderstorm
1:23 PM 82.4 °F 37.4 °F 20% 29.97 in 10.0 mi NE 8.1 mph - N/A   Clear
1:53 PM 82.9 °F 41.0 °F 23% 29.72 in 10.0 mi North 21.9 mph 29.9 mph N/A   Scattered Clouds
2:26 PM 75.2 °F 44.6 °F 34% 29.98 in 10.0 mi NW 18.4 mph 26.5 mph N/A Thunderstorm Thunderstorm
2:39 PM 66.2 °F 51.8 °F 60% 30.01 in 2.0 mi West 13.8 mph - 0.03 in Rain , Thunderstorm Thunderstorms and Rain
2:53 PM 72.0 °F 51.1 °F 48% 29.78 in 6.0 mi North 9.2 mph - 0.08 in Rain , Thunderstorm Light Thunderstorms and Rain
3:12 PM 73.4 °F 53.6 °F 50% 29.96 in 10.0 mi North 10.4 mph - 0.00 in   Partly Cloudy
3:41 PM 71.6 °F 51.8 °F 50% 30.00 in 10.0 mi NW 25.3 mph 33.4 mph 0.00 in Thunderstorm Thunderstorm
3:46 PM 64.4 °F 48.2 °F 56% 30.02 in 1.5 mi WNW 38.0 mph 50.6 mph 0.00 in Rain , Thunderstorm Light Thunderstorms and Rain
3:53 PM 61.0 °F 50.0 °F 67% 29.86 in 1.2 mi NW 19.6 mph 50.6 mph 0.05 in Rain , Thunderstorm Light Thunderstorms and Rain
3:55 PM 60.8 °F 48.2 °F 63% 30.03 in 2.0 mi WNW 15.0 mph 49.5 mph 0.01 in Rain , Thunderstorm Light Thunderstorms and Rain
4:02 PM 62.6 °F 48.2 °F 59% 30.00 in 10.0 mi West 10.4 mph 20.7 mph 0.01 in Thunderstorm Thunderstorm
4:23 PM 62.6 °F 51.8 °F 68% 29.98 in 10.0 mi North 11.5 mph - 0.01 in Thunderstorm Thunderstorm
4:45 PM 69.8 °F 51.8 °F 53% 29.97 in 10.0 mi West 8.1 mph - 0.01 in   Partly Cloudy
4:53 PM 73.0 °F 52.0 °F 48% 29.76 in 10.0 mi SW 9.2 mph - 0.01 in   Clear
5:53 PM 71.1 °F 50.0 °F 47% 29.75 in 10.0 mi SE 9.2 mph - N/A   Clear
6:53 PM 73.0 °F 48.0 °F 41% 29.75 in 10.0 mi Calm Calm - N/A   Clear
7:53 PM 70.0 °F 45.0 °F 41% 29.74 in 10.0 mi SW 4.6 mph - N/A   Clear
8:53 PM 69.1 °F 43.0 °F 39% 29.77 in 10.0 mi WSW 12.7 mph - N/A   Clear
9:53 PM 68.0 °F 43.0 °F 40% 29.78 in 10.0 mi WSW 13.8 mph - N/A   Clear
10:53 PM 69.1 °F 42.1 °F 38% 29.77 in 10.0 mi East 5.8 mph - N/A   Clear
11:53 PM 70.0 °F 42.1 °F 36% 29.74 in 10.0 mi SW 11.5 mph - N/A   Clear